owner,sensor,date,latitude,longitude,sea_surface_height_above_sea_level,qcFlag 
COMPS,ioos:station:USF.COMPS:ARP:1,2017-12-01T00:18:00Z,28.4330,-82.6670,-9.979,1111122 
COMPS,ioos:station:USF.COMPS:ARP:1,2017-12-01T00:24:00Z,28.4330,-82.6670,-9.955,1111122 
COMPS,ioos:station:USF.COMPS:ARP:1,2017-12-01T00:30:00Z,28.4330,-82.6670,-9.933,1111122 
COMPS,ioos:station:USF.COMPS:ARP:1,2017-12-01T00:36:00Z,28.4330,-82.6670,-9.912,1111122 
COMPS,ioos:station:USF.COMPS:ARP:1,2017-12-01T00:42:00Z,28.4330,-82.6670,-9.892,1111122 
COMPS,ioos:station:USF.COMPS:ARP:1,2017-12-01T00:48:00Z,28.4330,-82.6670,-9.871,1111122 
COMPS,ioos:station:USF.COMPS:ARP:1,2017-12-01T00:54:00Z,28.4330,-82.6670,-9.848,1111122 
COMPS,ioos:station:USF.COMPS:ARP:1,2017-12-01T01:00:00Z,28.4330,-82.6670,-9.825,1111122 
COMPS,ioos:station:USF.COMPS:ARP:1,2017-12-01T01:06:00Z,28.4330,-82.6670,-9.804,1111122 
COMPS,ioos:station:USF.COMPS:ARP:1,2017-12-01T01:12:00Z,28.4330,-82.6670,-9.782,1111122 
COMPS,ioos:station:USF.COMPS:ARP:1,2017-12-01T01:18:00Z,28.4330,-82.6670,-9.76,1111122 
COMPS,ioos:station:USF.COMPS:ARP:1,2017-12-01T01:24:00Z,28.4330,-82.6670,-9.739,1111122 
COMPS,ioos:station:USF.COMPS:ARP:1,2017-12-01T01:30:00Z,28.4330,-82.6670,-9.72,1111122 
COMPS,ioos:station:USF.COMPS:ARP:1,2017-12-01T01:36:00Z,28.4330,-82.6670,-9.699,1111122 
COMPS,ioos:station:USF.COMPS:ARP:1,2017-12-01T01:42:00Z,28.4330,-82.6670,-9.679,1111122 
COMPS,ioos:station:USF.COMPS:ARP:1,2017-12-01T01:48:00Z,28.4330,-82.6670,-9.662,1111122 
COMPS,ioos:station:USF.COMPS:ARP:1,2017-12-01T01:54:00Z,28.4330,-82.6670,-9.647,1111122 
COMPS,ioos:station:USF.COMPS:ARP:1,2017-12-01T02:00:00Z,28.4330,-82.6670,-9.632,1111122 
COMPS,ioos:station:USF.COMPS:ARP:1,2017-12-01T02:06:00Z,28.4330,-82.6670,-9.616,1111122 
COMPS,ioos:station:USF.COMPS:ARP:1,2017-12-01T02:12:00Z,28.4330,-82.6670,-9.602,1111122 
COMPS,ioos:station:USF.COMPS:ARP:1,2017-12-01T02:18:00Z,28.4330,-82.6670,-9.601,1111122 
COMPS,ioos:station:USF.COMPS:ARP:1,2017-12-01T02:24:00Z,28.4330,-82.6670,-9.572,1111122 
COMPS,ioos:station:USF.COMPS:ARP:1,2017-12-01T02:30:00Z,28.4330,-82.6670,-9.558,1111122 
COMPS,ioos:station:USF.COMPS:ARP:1,2017-12-01T02:36:00Z,28.4330,-82.6670,-9.547,1111122 
COMPS,ioos:station:USF.COMPS:ARP:1,2017-12-01T02:42:00Z,28.4330,-82.6670,-9.535,1111122 
COMPS,ioos:station:USF.COMPS:ARP:1,2017-12-01T02:48:00Z,28.4330,-82.6670,-9.523,1111122 
COMPS,ioos:station:USF.COMPS:ARP:1,2017-12-01T02:54:00Z,28.4330,-82.6670,-9.511,1111122 
COMPS,ioos:station:USF.COMPS:ARP:1,2017-12-01T03:00:00Z,28.4330,-82.6670,-9.498,1111122 
COMPS,ioos:station:USF.COMPS:ARP:1,2017-12-01T03:06:00Z,28.4330,-82.6670,-9.481,1111122 
COMPS,ioos:station:USF.COMPS:ARP:1,2017-12-01T03:12:00Z,28.4330,-82.6670,-9.469,1111122 
COMPS,ioos:station:USF.COMPS:ARP:1,2017-12-01T03:18:00Z,28.4330,-82.6670,-9.456,1111122 
COMPS,ioos:station:USF.COMPS:ARP:1,2017-12-01T03:24:00Z,28.4330,-82.6670,-9.447,1111122 
COMPS,ioos:station:USF.COMPS:ARP:1,2017-12-01T03:30:00Z,28.4330,-82.6670,-9.439,1111122 
COMPS,ioos:station:USF.COMPS:ARP:1,2017-12-01T03:36:00Z,28.4330,-82.6670,-9.433,1111122 
COMPS,ioos:station:USF.COMPS:ARP:1,2017-12-01T03:42:00Z,28.4330,-82.6670,-9.429,1111122 
COMPS,ioos:station:USF.COMPS:ARP:1,2017-12-01T03:48:00Z,28.4330,-82.6670,-9.429,1111122 
COMPS,ioos:station:USF.COMPS:ARP:1,2017-12-01T03:54:00Z,28.4330,-82.6670,-9.43,1111122 
COMPS,ioos:station:USF.COMPS:ARP:1,2017-12-01T04:00:00Z,28.4330,-82.6670,-9.439,1111122 
COMPS,ioos:station:USF.COMPS:ARP:1,2017-12-01T04:06:00Z,28.4330,-82.6670,-9.457,1111122 
COMPS,ioos:station:USF.COMPS:ARP:1,2017-12-01T04:12:00Z,28.4330,-82.6670,-9.48,1111122 
COMPS,ioos:station:USF.COMPS:ARP:1,2017-12-01T04:18:00Z,28.4330,-82.6670,-9.503,1111122 
COMPS,ioos:station:USF.COMPS:ARP:1,2017-12-01T04:24:00Z,28.4330,-82.6670,-9.518,1111122 
COMPS,ioos:station:USF.COMPS:ARP:1,2017-12-01T04:30:00Z,28.4330,-82.6670,-9.53,1111122 
COMPS,ioos:station:USF.COMPS:ARP:1,2017-12-01T04:36:00Z,28.4330,-82.6670,-9.541,1111122 
COMPS,ioos:station:USF.COMPS:ARP:1,2017-12-01T04:42:00Z,28.4330,-82.6670,-9.552,1111122 
COMPS,ioos:station:USF.COMPS:ARP:1,2017-12-01T04:48:00Z,28.4330,-82.6670,-9.571,1111122 
COMPS,ioos:station:USF.COMPS:ARP:1,2017-12-01T04:54:00Z,28.4330,-82.6670,-9.585,1111122 
COMPS,ioos:station:USF.COMPS:ARP:1,2017-12-01T05:00:00Z,28.4330,-82.6670,-9.6,1111122 
COMPS,ioos:station:USF.COMPS:ARP:1,2017-12-01T05:06:00Z,28.4330,-82.6670,-9.615,1111122 
COMPS,ioos:station:USF.COMPS:ARP:1,2017-12-01T05:12:00Z,28.4330,-82.6670,-9.628,1111122 
COMPS,ioos:station:USF.COMPS:ARP:1,2017-12-01T05:18:00Z,28.4330,-82.6670,-9.636,1111122 
COMPS,ioos:station:USF.COMPS:ARP:1,2017-12-01T05:24:00Z,28.4330,-82.6670,-9.648,1111122 
COMPS,ioos:station:USF.COMPS:ARP:1,2017-12-01T05:30:00Z,28.4330,-82.6670,-9.66,1111122 
COMPS,ioos:station:USF.COMPS:ARP:1,2017-12-01T05:36:00Z,28.4330,-82.6670,-9.679,1111122 
COMPS,ioos:station:USF.COMPS:ARP:1,2017-12-01T05:42:00Z,28.4330,-82.6670,-9.696,1111122 
COMPS,ioos:station:USF.COMPS:ARP:1,2017-12-01T05:48:00Z,28.4330,-82.6670,-9.716,1111122 
COMPS,ioos:station:USF.COMPS:ARP:1,2017-12-01T05:54:00Z,28.4330,-82.6670,-9.735,1111122 
COMPS,ioos:station:USF.COMPS:ARP:1,2017-12-01T06:00:00Z,28.4330,-82.6670,-9.752,1111122 
COMPS,ioos:station:USF.COMPS:ARP:1,2017-12-01T06:06:00Z,28.4330,-82.6670,-9.767,1111122 
COMPS,ioos:station:USF.COMPS:ARP:1,2017-12-01T06:12:00Z,28.4330,-82.6670,-9.783,1111122 
COMPS,ioos:station:USF.COMPS:ARP:1,2017-12-01T06:18:00Z,28.4330,-82.6670,-9.801,1111122 
COMPS,ioos:station:USF.COMPS:ARP:1,2017-12-01T06:24:00Z,28.4330,-82.6670,-9.82,1111122 
COMPS,ioos:station:USF.COMPS:ARP:1,2017-12-01T06:30:00Z,28.4330,-82.6670,-9.838,1111122 
COMPS,ioos:station:USF.COMPS:ARP:1,2017-12-01T06:36:00Z,28.4330,-82.6670,-9.86,1111122 
COMPS,ioos:station:USF.COMPS:ARP:1,2017-12-01T06:42:00Z,28.4330,-82.6670,-9.88,1111122 
COMPS,ioos:station:USF.COMPS:ARP:1,2017-12-01T06:48:00Z,28.4330,-82.6670,-9.898,1111122 
COMPS,ioos:station:USF.COMPS:ARP:1,2017-12-01T06:54:00Z,28.4330,-82.6670,-9.919,1111122 
COMPS,ioos:station:USF.COMPS:ARP:1,2017-12-01T07:00:00Z,28.4330,-82.6670,-9.939,1111122 
COMPS,ioos:station:USF.COMPS:ARP:1,2017-12-01T07:06:00Z,28.4330,-82.6670,-9.958,1111122 
COMPS,ioos:station:USF.COMPS:ARP:1,2017-12-01T07:12:00Z,28.4330,-82.6670,-9.979,1111122 
COMPS,ioos:station:USF.COMPS:ARP:1,2017-12-01T07:18:00Z,28.4330,-82.6670,-9.997,1111122 
COMPS,ioos:station:USF.COMPS:ARP:1,2017-12-01T14:42:00Z,28.4330,-82.6670,-9.97,1111122 
COMPS,ioos:station:USF.COMPS:ARP:1,2017-12-01T14:48:00Z,28.4330,-82.6670,-9.931,1111122 
COMPS,ioos:station:USF.COMPS:ARP:1,2017-12-01T14:54:00Z,28.4330,-82.6670,-9.896,1111122 
COMPS,ioos:station:USF.COMPS:ARP:1,2017-12-01T15:00:00Z,28.4330,-82.6670,-9.865,1111122 
COMPS,ioos:station:USF.COMPS:ARP:1,2017-12-01T15:06:00Z,28.4330,-82.6670,-9.832,1111122 
COMPS,ioos:station:USF.COMPS:ARP:1,2017-12-01T15:12:00Z,28.4330,-82.6670,-9.804,1111122 
COMPS,ioos:station:USF.COMPS:ARP:1,2017-12-01T15:24:00Z,28.4330,-82.6670,-9.754,1111122 
COMPS,ioos:station:USF.COMPS:ARP:1,2017-12-01T15:30:00Z,28.4330,-82.6670,-9.729,1111122 
COMPS,ioos:station:USF.COMPS:ARP:1,2017-12-01T15:36:00Z,28.4330,-82.6670,-9.706,1111122 
COMPS,ioos:station:USF.COMPS:ARP:1,2017-12-01T15:42:00Z,28.4330,-82.6670,-9.682,1111122 
COMPS,ioos:station:USF.COMPS:ARP:1,2017-12-01T15:54:00Z,28.4330,-82.6670,-9.642,1111122 
COMPS,ioos:station:USF.COMPS:ARP:1,2017-12-01T16:00:00Z,28.4330,-82.6670,-9.626,1111122 
COMPS,ioos:station:USF.COMPS:ARP:1,2017-12-01T16:06:00Z,28.4330,-82.6670,-9.611,1111122 
COMPS,ioos:station:USF.COMPS:ARP:1,2017-12-01T16:12:00Z,28.4330,-82.6670,-9.598,1111122 
COMPS,ioos:station:USF.COMPS:ARP:1,2017-12-01T16:18:00Z,28.4330,-82.6670,-9.581,1111122 
COMPS,ioos:station:USF.COMPS:ARP:1,2017-12-01T16:24:00Z,28.4330,-82.6670,-9.568,1111122 
COMPS,ioos:station:USF.COMPS:ARP:1,2017-12-01T16:30:00Z,28.4330,-82.6670,-9.557,1111122 
COMPS,ioos:station:USF.COMPS:ARP:1,2017-12-01T16:36:00Z,28.4330,-82.6670,-9.548,1111122 
COMPS,ioos:station:USF.COMPS:ARP:1,2017-12-01T16:42:00Z,28.4330,-82.6670,-9.54,1111122 
COMPS,ioos:station:USF.COMPS:ARP:1,2017-12-01T16:54:00Z,28.4330,-82.6670,-9.528,1111122 
COMPS,ioos:station:USF.COMPS:ARP:1,2017-12-01T17:00:00Z,28.4330,-82.6670,-9.524,1111122 
COMPS,ioos:station:USF.COMPS:ARP:1,2017-12-01T17:06:00Z,28.4330,-82.6670,-9.529,1111122 
COMPS,ioos:station:USF.COMPS:ARP:1,2017-12-01T17:12:00Z,28.4330,-82.6670,-9.541,1111122 
COMPS,ioos:station:USF.COMPS:ARP:1,2017-12-01T17:18:00Z,28.4330,-82.6670,-9.557,1111122 
COMPS,ioos:station:USF.COMPS:ARP:1,2017-12-01T17:24:00Z,28.4330,-82.6670,-9.569,1111122 
COMPS,ioos:station:USF.COMPS:ARP:1,2017-12-01T17:30:00Z,28.4330,-82.6670,-9.588,1111122 
COMPS,ioos:station:USF.COMPS:ARP:1,2017-12-01T17:36:00Z,28.4330,-82.6670,-9.609,1111122 
COMPS,ioos:station:USF.COMPS:ARP:1,2017-12-01T17:42:00Z,28.4330,-82.6670,-9.626,1111122 
COMPS,ioos:station:USF.COMPS:ARP:1,2017-12-01T17:48:00Z,28.4330,-82.6670,-9.638,1111122 
COMPS,ioos:station:USF.COMPS:ARP:1,2017-12-01T17:54:00Z,28.4330,-82.6670,-9.653,1111122 
COMPS,ioos:station:USF.COMPS:ARP:1,2017-12-01T18:00:00Z,28.4330,-82.6670,-9.667,1111122 
COMPS,ioos:station:USF.COMPS:ARP:1,2017-12-01T18:06:00Z,28.4330,-82.6670,-9.683,1111122 
COMPS,ioos:station:USF.COMPS:ARP:1,2017-12-01T18:12:00Z,28.4330,-82.6670,-9.694,1111122 
COMPS,ioos:station:USF.COMPS:ARP:1,2017-12-01T18:18:00Z,28.4330,-82.6670,-9.711,1111122 
COMPS,ioos:station:USF.COMPS:ARP:1,2017-12-01T18:24:00Z,28.4330,-82.6670,-9.723,1111122 
COMPS,ioos:station:USF.COMPS:ARP:1,2017-12-01T18:30:00Z,28.4330,-82.6670,-9.738,1111122 
COMPS,ioos:station:USF.COMPS:ARP:1,2017-12-01T18:36:00Z,28.4330,-82.6670,-9.744,1111122 
COMPS,ioos:station:USF.COMPS:ARP:1,2017-12-01T18:42:00Z,28.4330,-82.6670,-9.754,1111122 
COMPS,ioos:station:USF.COMPS:ARP:1,2017-12-01T18:48:00Z,28.4330,-82.6670,-9.763,1111122 
COMPS,ioos:station:USF.COMPS:ARP:1,2017-12-01T18:54:00Z,28.4330,-82.6670,-9.774,1111122 
COMPS,ioos:station:USF.COMPS:ARP:1,2017-12-01T19:00:00Z,28.4330,-82.6670,-9.784,1111122 
COMPS,ioos:station:USF.COMPS:ARP:1,2017-12-01T19:06:00Z,28.4330,-82.6670,-9.795,1111122 
COMPS,ioos:station:USF.COMPS:ARP:1,2017-12-01T19:12:00Z,28.4330,-82.6670,-9.809,1111122 
COMPS,ioos:station:USF.COMPS:ARP:1,2017-12-01T19:18:00Z,28.4330,-82.6670,-9.824,1111122 
COMPS,ioos:station:USF.COMPS:ARP:1,2017-12-01T19:24:00Z,28.4330,-82.6670,-9.838,1111122 
COMPS,ioos:station:USF.COMPS:ARP:1,2017-12-01T19:30:00Z,28.4330,-82.6670,-9.851,1111122 
COMPS,ioos:station:USF.COMPS:ARP:1,2017-12-01T19:36:00Z,28.4330,-82.6670,-9.866,1111122 
COMPS,ioos:station:USF.COMPS:ARP:1,2017-12-01T19:42:00Z,28.4330,-82.6670,-9.883,1111122 
COMPS,ioos:station:USF.COMPS:ARP:1,2017-12-01T19:48:00Z,28.4330,-82.6670,-9.898,1111122 
COMPS,ioos:station:USF.COMPS:ARP:1,2017-12-01T19:54:00Z,28.4330,-82.6670,-9.914,1111122 
COMPS,ioos:station:USF.COMPS:ARP:1,2017-12-01T20:00:00Z,28.4330,-82.6670,-9.929,1111122 
COMPS,ioos:station:USF.COMPS:ARP:1,2017-12-01T20:06:00Z,28.4330,-82.6670,-9.945,1111122 
COMPS,ioos:station:USF.COMPS:ARP:1,2017-12-01T20:12:00Z,28.4330,-82.6670,-9.961,1111122 
COMPS,ioos:station:USF.COMPS:ARP:1,2017-12-01T20:18:00Z,28.4330,-82.6670,-9.976,1111122 
COMPS,ioos:station:USF.COMPS:ARP:1,2017-12-01T20:24:00Z,28.4330,-82.6670,-9.993,1111122 
COMPS,ioos:station:USF.COMPS:ARP:1,2017-12-02T00:48:00Z,28.4330,-82.6670,-9.983,1111122 
COMPS,ioos:station:USF.COMPS:ARP:1,2017-12-02T00:54:00Z,28.4330,-82.6670,-9.961,1111122 
COMPS,ioos:station:USF.COMPS:ARP:1,2017-12-02T01:00:00Z,28.4330,-82.6670,-9.938,1111122 
COMPS,ioos:station:USF.COMPS:ARP:1,2017-12-02T01:06:00Z,28.4330,-82.6670,-9.917,1111122 
COMPS,ioos:station:USF.COMPS:ARP:1,2017-12-02T01:12:00Z,28.4330,-82.6670,-9.896,1111122 
COMPS,ioos:station:USF.COMPS:ARP:1,2017-12-02T01:18:00Z,28.4330,-82.6670,-9.874,1111122 
COMPS,ioos:station:USF.COMPS:ARP:1,2017-12-02T01:24:00Z,28.4330,-82.6670,-9.849,1111122 
COMPS,ioos:station:USF.COMPS:ARP:1,2017-12-02T01:30:00Z,28.4330,-82.6670,-9.824,1111122 
COMPS,ioos:station:USF.COMPS:ARP:1,2017-12-02T01:36:00Z,28.4330,-82.6670,-9.801,1111122 
COMPS,ioos:station:USF.COMPS:ARP:1,2017-12-02T01:42:00Z,28.4330,-82.6670,-9.777,1111122 
COMPS,ioos:station:USF.COMPS:ARP:1,2017-12-02T01:48:00Z,28.4330,-82.6670,-9.752,1111122 
COMPS,ioos:station:USF.COMPS:ARP:1,2017-12-02T01:54:00Z,28.4330,-82.6670,-9.728,1111122 
COMPS,ioos:station:USF.COMPS:ARP:1,2017-12-02T02:00:00Z,28.4330,-82.6670,-9.702,1111122 
COMPS,ioos:station:USF.COMPS:ARP:1,2017-12-02T02:06:00Z,28.4330,-82.6670,-9.677,1111122 
COMPS,ioos:station:USF.COMPS:ARP:1,2017-12-02T02:12:00Z,28.4330,-82.6670,-9.652,1111122 
COMPS,ioos:station:USF.COMPS:ARP:1,2017-12-02T02:18:00Z,28.4330,-82.6670,-9.629,1111122 
COMPS,ioos:station:USF.COMPS:ARP:1,2017-12-02T02:24:00Z,28.4330,-82.6670,-9.605,1111122 
COMPS,ioos:station:USF.COMPS:ARP:1,2017-12-02T02:30:00Z,28.4330,-82.6670,-9.579,1111122 
COMPS,ioos:station:USF.COMPS:ARP:1,2017-12-02T02:36:00Z,28.4330,-82.6670,-9.554,1111122 
COMPS,ioos:station:USF.COMPS:ARP:1,2017-12-02T02:42:00Z,28.4330,-82.6670,-9.532,1111122 
COMPS,ioos:station:USF.COMPS:ARP:1,2017-12-02T02:48:00Z,28.4330,-82.6670,-9.511,1111122 
COMPS,ioos:station:USF.COMPS:ARP:1,2017-12-02T02:54:00Z,28.4330,-82.6670,-9.487,1111122 
COMPS,ioos:station:USF.COMPS:ARP:1,2017-12-02T03:00:00Z,28.4330,-82.6670,-9.464,1111122 
COMPS,ioos:station:USF.COMPS:ARP:1,2017-12-02T03:06:00Z,28.4330,-82.6670,-9.443,1111122 
COMPS,ioos:station:USF.COMPS:ARP:1,2017-12-02T03:12:00Z,28.4330,-82.6670,-9.424,1111122 
COMPS,ioos:station:USF.COMPS:ARP:1,2017-12-02T03:18:00Z,28.4330,-82.6670,-9.404,1111122 
COMPS,ioos:station:USF.COMPS:ARP:1,2017-12-02T03:24:00Z,28.4330,-82.6670,-9.385,1111122 
COMPS,ioos:station:USF.COMPS:ARP:1,2017-12-02T03:30:00Z,28.4330,-82.6670,-9.368,1111122 
COMPS,ioos:station:USF.COMPS:ARP:1,2017-12-02T03:36:00Z,28.4330,-82.6670,-9.352,1111122 
COMPS,ioos:station:USF.COMPS:ARP:1,2017-12-02T03:42:00Z,28.4330,-82.6670,-9.337,1111122 
COMPS,ioos:station:USF.COMPS:ARP:1,2017-12-02T03:48:00Z,28.4330,-82.6670,-9.325,1111122 
COMPS,ioos:station:USF.COMPS:ARP:1,2017-12-02T03:54:00Z,28.4330,-82.6670,-9.313,1111122 
COMPS,ioos:station:USF.COMPS:ARP:1,2017-12-02T04:00:00Z,28.4330,-82.6670,-9.305,1111122 
COMPS,ioos:station:USF.COMPS:ARP:1,2017-12-02T04:06:00Z,28.4330,-82.6670,-9.298,1111122 
COMPS,ioos:station:USF.COMPS:ARP:1,2017-12-02T04:12:00Z,28.4330,-82.6670,-9.293,1111122 
COMPS,ioos:station:USF.COMPS:ARP:1,2017-12-02T04:18:00Z,28.4330,-82.6670,-9.29,1111122 
COMPS,ioos:station:USF.COMPS:ARP:1,2017-12-02T04:24:00Z,28.4330,-82.6670,-9.289,1111122 
COMPS,ioos:station:USF.COMPS:ARP:1,2017-12-02T04:30:00Z,28.4330,-82.6670,-9.293,1111122 
COMPS,ioos:station:USF.COMPS:ARP:1,2017-12-02T04:36:00Z,28.4330,-82.6670,-9.296,1111122 
COMPS,ioos:station:USF.COMPS:ARP:1,2017-12-02T04:42:00Z,28.4330,-82.6670,-9.307,1111122 
COMPS,ioos:station:USF.COMPS:ARP:1,2017-12-02T04:48:00Z,28.4330,-82.6670,-9.322,1111122 
COMPS,ioos:station:USF.COMPS:ARP:1,2017-12-02T04:54:00Z,28.4330,-82.6670,-9.339,1111122 
COMPS,ioos:station:USF.COMPS:ARP:1,2017-12-02T05:00:00Z,28.4330,-82.6670,-9.356,1111122 
COMPS,ioos:station:USF.COMPS:ARP:1,2017-12-02T05:06:00Z,28.4330,-82.6670,-9.374,1111122 
COMPS,ioos:station:USF.COMPS:ARP:1,2017-12-02T05:12:00Z,28.4330,-82.6670,-9.388,1111122 
COMPS,ioos:station:USF.COMPS:ARP:1,2017-12-02T05:18:00Z,28.4330,-82.6670,-9.405,1111122 
COMPS,ioos:station:USF.COMPS:ARP:1,2017-12-02T05:24:00Z,28.4330,-82.6670,-9.423,1111122 
COMPS,ioos:station:USF.COMPS:ARP:1,2017-12-02T05:30:00Z,28.4330,-82.6670,-9.441,1111122 
COMPS,ioos:station:USF.COMPS:ARP:1,2017-12-02T05:36:00Z,28.4330,-82.6670,-9.454,1111122 
COMPS,ioos:station:USF.COMPS:ARP:1,2017-12-02T05:42:00Z,28.4330,-82.6670,-9.47,1111122 
COMPS,ioos:station:USF.COMPS:ARP:1,2017-12-02T05:48:00Z,28.4330,-82.6670,-9.487,1111122 
COMPS,ioos:station:USF.COMPS:ARP:1,2017-12-02T05:54:00Z,28.4330,-82.6670,-9.502,1111122 
COMPS,ioos:station:USF.COMPS:ARP:1,2017-12-02T06:00:00Z,28.4330,-82.6670,-9.518,1111122 
COMPS,ioos:station:USF.COMPS:ARP:1,2017-12-02T06:06:00Z,28.4330,-82.6670,-9.534,1111122 
COMPS,ioos:station:USF.COMPS:ARP:1,2017-12-02T06:12:00Z,28.4330,-82.6670,-9.55,1111122 
COMPS,ioos:station:USF.COMPS:ARP:1,2017-12-02T06:18:00Z,28.4330,-82.6670,-9.569,1111122 
COMPS,ioos:station:USF.COMPS:ARP:1,2017-12-02T06:24:00Z,28.4330,-82.6670,-9.589,1111122 
COMPS,ioos:station:USF.COMPS:ARP:1,2017-12-02T06:30:00Z,28.4330,-82.6670,-9.609,1111122 
COMPS,ioos:station:USF.COMPS:ARP:1,2017-12-02T06:36:00Z,28.4330,-82.6670,-9.628,1111122 
COMPS,ioos:station:USF.COMPS:ARP:1,2017-12-02T06:42:00Z,28.4330,-82.6670,-9.645,1111122 
COMPS,ioos:station:USF.COMPS:ARP:1,2017-12-02T06:48:00Z,28.4330,-82.6670,-9.661,1111122 
COMPS,ioos:station:USF.COMPS:ARP:1,2017-12-02T06:54:00Z,28.4330,-82.6670,-9.681,1111122 
COMPS,ioos:station:USF.COMPS:ARP:1,2017-12-02T07:00:00Z,28.4330,-82.6670,-9.704,1111122 
COMPS,ioos:station:USF.COMPS:ARP:1,2017-12-02T07:06:00Z,28.4330,-82.6670,-9.726,1111122 
COMPS,ioos:station:USF.COMPS:ARP:1,2017-12-02T07:12:00Z,28.4330,-82.6670,-9.746,1111122 
COMPS,ioos:station:USF.COMPS:ARP:1,2017-12-02T07:18:00Z,28.4330,-82.6670,-9.767,1111122 
COMPS,ioos:station:USF.COMPS:ARP:1,2017-12-02T07:24:00Z,28.4330,-82.6670,-9.788,1111122 
COMPS,ioos:station:USF.COMPS:ARP:1,2017-12-02T07:30:00Z,28.4330,-82.6670,-9.809,1111122 
COMPS,ioos:station:USF.COMPS:ARP:1,2017-12-02T07:36:00Z,28.4330,-82.6670,-9.829,1111122 
COMPS,ioos:station:USF.COMPS:ARP:1,2017-12-02T07:42:00Z,28.4330,-82.6670,-9.851,1111122 
COMPS,ioos:station:USF.COMPS:ARP:1,2017-12-02T07:48:00Z,28.4330,-82.6670,-9.874,1111122 
COMPS,ioos:station:USF.COMPS:ARP:1,2017-12-02T07:54:00Z,28.4330,-82.6670,-9.896,1111122 
COMPS,ioos:station:USF.COMPS:ARP:1,2017-12-02T08:00:00Z,28.4330,-82.6670,-9.916,1111122 
COMPS,ioos:station:USF.COMPS:ARP:1,2017-12-02T08:06:00Z,28.4330,-82.6670,-9.937,1111122 
COMPS,ioos:station:USF.COMPS:ARP:1,2017-12-02T08:12:00Z,28.4330,-82.6670,-9.959,1111122 
COMPS,ioos:station:USF.COMPS:ARP:1,2017-12-02T08:18:00Z,28.4330,-82.6670,-9.982,1111122 
COMPS,ioos:station:USF.COMPS:ARP:1,2017-12-02T15:42:00Z,28.4330,-82.6670,-9.969,1111122 
COMPS,ioos:station:USF.COMPS:ARP:1,2017-12-02T15:48:00Z,28.4330,-82.6670,-9.924,1111122 
COMPS,ioos:station:USF.COMPS:ARP:1,2017-12-02T15:54:00Z,28.4330,-82.6670,-9.886,1111122 
COMPS,ioos:station:USF.COMPS:ARP:1,2017-12-02T16:00:00Z,28.4330,-82.6670,-9.847,1111122 
COMPS,ioos:station:USF.COMPS:ARP:1,2017-12-02T16:06:00Z,28.4330,-82.6670,-9.81,1111122 
COMPS,ioos:station:USF.COMPS:ARP:1,2017-12-02T16:12:00Z,28.4330,-82.6670,-9.778,1111122 
COMPS,ioos:station:USF.COMPS:ARP:1,2017-12-02T16:18:00Z,28.4330,-82.6670,-9.747,1111122 
COMPS,ioos:station:USF.COMPS:ARP:1,2017-12-02T16:24:00Z,28.4330,-82.6670,-9.718,1111122 
COMPS,ioos:station:USF.COMPS:ARP:1,2017-12-02T16:30:00Z,28.4330,-82.6670,-9.69,1111122 
COMPS,ioos:station:USF.COMPS:ARP:1,2017-12-02T16:36:00Z,28.4330,-82.6670,-9.662,1111122 
COMPS,ioos:station:USF.COMPS:ARP:1,2017-12-02T16:42:00Z,28.4330,-82.6670,-9.638,1111122 
COMPS,ioos:station:USF.COMPS:ARP:1,2017-12-02T16:48:00Z,28.4330,-82.6670,-9.615,1111122 
COMPS,ioos:station:USF.COMPS:ARP:1,2017-12-02T16:54:00Z,28.4330,-82.6670,-9.591,1111122 
COMPS,ioos:station:USF.COMPS:ARP:1,2017-12-02T17:00:00Z,28.4330,-82.6670,-9.567,1111122 
COMPS,ioos:station:USF.COMPS:ARP:1,2017-12-02T17:06:00Z,28.4330,-82.6670,-9.548,1111122 
COMPS,ioos:station:USF.COMPS:ARP:1,2017-12-02T17:12:00Z,28.4330,-82.6670,-9.536,1111122 
COMPS,ioos:station:USF.COMPS:ARP:1,2017-12-02T17:18:00Z,28.4330,-82.6670,-9.523,1111122 
COMPS,ioos:station:USF.COMPS:ARP:1,2017-12-02T17:24:00Z,28.4330,-82.6670,-9.511,1111122 
COMPS,ioos:station:USF.COMPS:ARP:1,2017-12-02T17:30:00Z,28.4330,-82.6670,-9.502,1111122 
COMPS,ioos:station:USF.COMPS:ARP:1,2017-12-02T17:36:00Z,28.4330,-82.6670,-9.493,1111122 
COMPS,ioos:station:USF.COMPS:ARP:1,2017-12-02T17:42:00Z,28.4330,-82.6670,-9.488,1111122 
COMPS,ioos:station:USF.COMPS:ARP:1,2017-12-02T17:48:00Z,28.4330,-82.6670,-9.488,1111122 
COMPS,ioos:station:USF.COMPS:ARP:1,2017-12-02T18:00:00Z,28.4330,-82.6670,-9.502,1111122 
COMPS,ioos:station:USF.COMPS:ARP:1,2017-12-02T18:06:00Z,28.4330,-82.6670,-9.511,1111122 
COMPS,ioos:station:USF.COMPS:ARP:1,2017-12-02T18:12:00Z,28.4330,-82.6670,-9.521,1111122 
COMPS,ioos:station:USF.COMPS:ARP:1,2017-12-02T18:18:00Z,28.4330,-82.6670,-9.531,1111122 
COMPS,ioos:station:USF.COMPS:ARP:1,2017-12-02T18:24:00Z,28.4330,-82.6670,-9.543,1111122 
COMPS,ioos:station:USF.COMPS:ARP:1,2017-12-02T18:30:00Z,28.4330,-82.6670,-9.553,1111122 
COMPS,ioos:station:USF.COMPS:ARP:1,2017-12-02T18:36:00Z,28.4330,-82.6670,-9.564,1111122 
COMPS,ioos:station:USF.COMPS:ARP:1,2017-12-02T18:42:00Z,28.4330,-82.6670,-9.576,1111122 
COMPS,ioos:station:USF.COMPS:ARP:1,2017-12-02T18:48:00Z,28.4330,-82.6670,-9.594,1111122 
COMPS,ioos:station:USF.COMPS:ARP:1,2017-12-02T18:54:00Z,28.4330,-82.6670,-9.612,1111122 
COMPS,ioos:station:USF.COMPS:ARP:1,2017-12-02T19:00:00Z,28.4330,-82.6670,-9.624,1111122 
COMPS,ioos:station:USF.COMPS:ARP:1,2017-12-02T19:12:00Z,28.4330,-82.6670,-9.649,1111122 
COMPS,ioos:station:USF.COMPS:ARP:1,2017-12-02T19:18:00Z,28.4330,-82.6670,-9.661,1111122 
COMPS,ioos:station:USF.COMPS:ARP:1,2017-12-02T19:24:00Z,28.4330,-82.6670,-9.673,1111122 
COMPS,ioos:station:USF.COMPS:ARP:1,2017-12-02T19:30:00Z,28.4330,-82.6670,-9.687,1111122 
COMPS,ioos:station:USF.COMPS:ARP:1,2017-12-02T19:36:00Z,28.4330,-82.6670,-9.701,1111122 
COMPS,ioos:station:USF.COMPS:ARP:1,2017-12-02T19:42:00Z,28.4330,-82.6670,-9.717,1111122 
COMPS,ioos:station:USF.COMPS:ARP:1,2017-12-02T19:48:00Z,28.4330,-82.6670,-9.731,1111122 
COMPS,ioos:station:USF.COMPS:ARP:1,2017-12-02T19:54:00Z,28.4330,-82.6670,-9.745,1111122 
COMPS,ioos:station:USF.COMPS:ARP:1,2017-12-02T20:00:00Z,28.4330,-82.6670,-9.76,1111122 
COMPS,ioos:station:USF.COMPS:ARP:1,2017-12-02T20:12:00Z,28.4330,-82.6670,-9.794,1111122 
COMPS,ioos:station:USF.COMPS:ARP:1,2017-12-02T20:18:00Z,28.4330,-82.6670,-9.809,1111122 
COMPS,ioos:station:USF.COMPS:ARP:1,2017-12-02T20:24:00Z,28.4330,-82.6670,-9.825,1111122 
COMPS,ioos:station:USF.COMPS:ARP:1,2017-12-02T20:30:00Z,28.4330,-82.6670,-9.842,1111122 
COMPS,ioos:station:USF.COMPS:ARP:1,2017-12-02T20:36:00Z,28.4330,-82.6670,-9.861,1111122 
COMPS,ioos:station:USF.COMPS:ARP:1,2017-12-02T20:42:00Z,28.4330,-82.6670,-9.878,1111122 
COMPS,ioos:station:USF.COMPS:ARP:1,2017-12-02T20:48:00Z,28.4330,-82.6670,-9.896,1111122 
COMPS,ioos:station:USF.COMPS:ARP:1,2017-12-02T20:54:00Z,28.4330,-82.6670,-9.913,1111122 
COMPS,ioos:station:USF.COMPS:ARP:1,2017-12-02T21:00:00Z,28.4330,-82.6670,-9.929,1111122 
COMPS,ioos:station:USF.COMPS:ARP:1,2017-12-02T21:06:00Z,28.4330,-82.6670,-9.946,1111122 
COMPS,ioos:station:USF.COMPS:ARP:1,2017-12-02T21:12:00Z,28.4330,-82.6670,-9.963,1111122 
COMPS,ioos:station:USF.COMPS:ARP:1,2017-12-02T21:18:00Z,28.4330,-82.6670,-9.98,1111122 
COMPS,ioos:station:USF.COMPS:ARP:1,2017-12-02T21:24:00Z,28.4330,-82.6670,-9.995,1111122 
COMPS,ioos:station:USF.COMPS:ARP:1,2017-12-03T01:06:00Z,28.4330,-82.6670,-9.999,1111122 
COMPS,ioos:station:USF.COMPS:ARP:1,2017-12-03T01:12:00Z,28.4330,-82.6670,-9.979,1111122 
COMPS,ioos:station:USF.COMPS:ARP:1,2017-12-03T01:18:00Z,28.4330,-82.6670,-9.957,1111122 
COMPS,ioos:station:USF.COMPS:ARP:1,2017-12-03T01:24:00Z,28.4330,-82.6670,-9.935,1111122 
COMPS,ioos:station:USF.COMPS:ARP:1,2017-12-03T01:30:00Z,28.4330,-82.6670,-9.914,1111122 
COMPS,ioos:station:USF.COMPS:ARP:1,2017-12-03T01:36:00Z,28.4330,-82.6670,-9.893,1111122 
COMPS,ioos:station:USF.COMPS:ARP:1,2017-12-03T01:42:00Z,28.4330,-82.6670,-9.87,1111122 
COMPS,ioos:station:USF.COMPS:ARP:1,2017-12-03T01:48:00Z,28.4330,-82.6670,-9.845,1111122 
COMPS,ioos:station:USF.COMPS:ARP:1,2017-12-03T01:54:00Z,28.4330,-82.6670,-9.82,1111122 
COMPS,ioos:station:USF.COMPS:ARP:1,2017-12-03T02:00:00Z,28.4330,-82.6670,-9.796,1111122 
COMPS,ioos:station:USF.COMPS:ARP:1,2017-12-03T02:06:00Z,28.4330,-82.6670,-9.771,1111122 
COMPS,ioos:station:USF.COMPS:ARP:1,2017-12-03T02:12:00Z,28.4330,-82.6670,-9.745,1111122 